Location: Middle Street
(51.7167°N, 0.0333°E)
Time: 02:24:28
(UTC+00:00)

MetOp-A - Pass Details

Date: 20 January 2021
Orbit: 819 x 821 km, 98.5° (Epoch: 04 March)

Event Time Altitude Azimuth Distance (km) Brightness Sun altitude
Exits shadow 19:04:25 48° 40° (NE) 1,072 4.4 -23.7°
Drops below altitude 10° 19:08:53 10° 353° (N) 2,431 6.6 -24.4°
Sets 19:11:17 0° 349° (NNW) 3,368 7.5 -24.8°
